YAOGAN-50 02 DEB

基本信息
目录编号:
100604
目录名称:
YAOGAN-50 02 DEB
国际标识:
2026-051AU
轨道中心:
EARTH
物体状态:
在轨
发射日期:
2026-03-15 UTC
轨道信息
数据来源: 国际轨道数据
星历时间: 2026-09-04T12:40:57+0800
半长轴: 7284.409km
偏心率: 0.0200782
轨道倾角: 141.958°
近地点辐角: 351.209°
升交点赤经: 353.362°
平近点角: 8.517°
近地点: 760.014km
远地点: 1052.53km
周期: 103.122分钟
每日圈数: 13.964048
详细信息
发射场:
TSC
轨道高度:
LEO
数据来源:
AOE Integration Group
参考系:
TEME
时间系统:
UTC
历元类型:
SGP4
2D轨道图
3D轨道图
轨道高度分析图
轨道倾角分析图
轨道综合分析图
查看轨道综合分析图